Location: Crocus Hill
(18.2167°N, 63.0667°W)
Time: 01:09:25
(UTC+00:00)

Cosmos 2154 Rocket - Pass Details

Date: 26 January 2020
Orbit: 965 x 997 km, 82.9° (Epoch: 19 February)

Event Time Altitude Azimuth Distance (km) Brightness Sun altitude
Exits shadow 09:06:35 19° 347° (NNW) 2,133 5.5 -23.7°
Maximum altitude 09:11:10 70° 267° (W) 1,026 3.8 -22.6°
Drops below altitude 10° 09:17:19 10° 185° (S) 2,711 6.4 -21.2°
Sets 09:19:51 0° 183° (S) 3,662 7.2 -20.6°
